Regional Weather Roundup
Issued by NWS

Home | Current Version | Previous Version | Text Only | Print | Product List | Glossary On
Versions: 1 2 3 4 5 6 7 8 9 10 11 12 13 14 15 16 17 18 19 20 21 22 23 24 25 26 27 28 29 30 31 32 33 34 35 36 37 38 39 40 41 42 43 44 45 46 47 48 49 50
000
ASUS44 KFWD 202315
RWRTX
NORTH TEXAS HOURLY WEATHER ROUNDUP
NATIONAL WEATHER SERVICE FORT WORTH TX
500 PM CST SAT DEC 20 2014

NOTE: "FAIR" INDICATES FEW OR NO CLOUDS BELOW 12,000 FEET WITH NO
SIGNIFICANT WEATHER AND/OR OBSTRUCTIONS TO VISIBILITY.

TXZ118-119-210000-
DALLAS/FORT WORTH METROPLEX

CITY           SKY/WX    TMP DP  RH WIND       PRES   REMARKS
DFW AIRPORT    CLOUDY    47  43  86 CALM      30.18S
DALLAS LOVE    CLOUDY    48  42  80 CALM      30.18F
FTW MEACHAM    CLOUDY    48  42  80 E5        30.16F
DAL-EXECUTIVE  CLOUDY    49  43  80 CALM      30.17F
FTW-ALLIANCE   CLOUDY    46  43  89 E5        30.17F
FTW-SPINKS     CLOUDY    48  45  87 CALM      30.19S FOG
ARLINGTON      CLOUDY    49  41  74 NE3       30.18S
GRAND PRAIRIE  CLOUDY    48  45  87 CALM      30.19F
ADDISON        CLOUDY    46  43  87 CALM      30.19S
MESQUITE       CLOUDY    46  45  93 CALM      30.19S
LANCASTER      CLOUDY    47  42  80 CALM      30.20S
$$

TXZ091>094-102>105-117-120-121-131>134-210000-
NORTH CENTRAL TEXAS

CITY           SKY/WX    TMP DP  RH WIND       PRES   REMARKS
SHRMAN/DENISON CLOUDY    46  43  91 CALM      30.19F
GAINESVILLE    CLOUDY    45  40  82 CALM      30.19F
BOWIE          CLOUDY    43  42  95 CALM      30.17R
BRIDGEPORT     CLOUDY    47  44  87 S3        30.18S
DECATUR        CLOUDY    46  40  81 SE5       30.16S
DENTON         CLOUDY    47  41  80 SE5       30.17F
MCKINNEY       CLOUDY    47  42  83 CALM      30.19S
GREENVILLE     CLOUDY    46  45  93 CALM      30.19S FOG
ROCKWALL       CLOUDY    47  44  91 CALM      30.18S
TERRELL        CLOUDY    50  45  83 N3        30.19S
WAXAHACHIE     CLOUDY    47  46  99 CALM      30.19S FOG
CLEBURNE       CLOUDY    48  45  87 CALM      30.18F
GRANBURY       CLOUDY    50  40  68 CALM      30.18S
$$

TXZ083>090-098>101-113>116-127>130-139>142-154-155-210000-
WESTERN NORTH TEXAS

CITY           SKY/WX    TMP DP  RH WIND       PRES   REMARKS
WICHITA FALLS  CLOUDY    45  40  82 SE10      30.15S WCI  40
WF-KICKAPOO    CLOUDY    46  40  81 S5        30.16S
VERNON         CLOUDY    49  38  65 SE8       30.13S
ABILENE        MOCLDY    51  40  65 SE10      30.10F
ABILENE-DYESS  CLOUDY    52  39  62 S6        30.09S
BRECKENRIDGE   CLOUDY    51  40  67 E3        30.12F
GRAHAM         CLOUDY    47  42  85 SE5       30.13F
MINERAL WELLS  CLOUDY    47  40  76 S5        30.15S
STEPHENVILLE   CLOUDY    48  40  73 CALM      30.17S
COMANCHE       CLOUDY    49  43  80 E6        30.14S
BROWNWOOD      MOCLDY    50  41  71 E6        30.13S
COLEMAN        CLOUDY    51  43  72 CALM      30.11F
BRADY          MOCLDY    52  41  66 SE5       30.10S
$$

TXZ143>147-156>162-174-175-210000-
CENTRAL TEXAS

CITY           SKY/WX    TMP DP  RH WIND       PRES   REMARKS
WACO           CLOUDY    50  44  80 NE7       30.17S
WACO-TSTC      CLOUDY    50  46  87 NE5       30.18S
WACO-MCGREGOR  CLOUDY    50  43  76 NE8       30.18S
HILLSBORO      CLOUDY    49  44  81 N3        30.17F HAZE
CORSICANA      CLOUDY    51  45  79 N6        30.19S
MEXIA          CLOUDY    50  46  87 N3        30.17S
HEARNE         CLOUDY    52  47  83 NE3       30.18S
CAMERON        CLOUDY    51  48  90 N7        30.16F
TEMPLE         CLOUDY    52  41  66 NE7       30.15S
KILLEEN        CLOUDY    51  44  77 NE6       30.14F
KILLEEN-SKYLRK CLOUDY    52  41  66 NE9       30.12F
GATESVILLE     CLOUDY    52  43  71 NE5       30.17S
HAMILTON       CLOUDY    50  40  69 CALM      30.15S
$$

TXZ095>097-106>112-122>126-135>138-148>153-164>167-210000-
EAST TEXAS

CITY           SKY/WX    TMP DP  RH WIND       PRES   REMARKS
PARIS          CLOUDY    48  41  76 CALM      30.20F
SULPHUR SPRNGS CLOUDY    49  44  84 NE3       30.21S HAZE
MOUNT PLEASANT CLOUDY    49  45  85 N3        30.21S
MINEOLA        CLOUDY    52  46  82 CALM      30.19S FOG
TYLER          MOCLDY    52  42  69 SE3       30.17S
LONGVIEW       PTCLDY    52  43  71 E3        30.18R
MARSHALL       CLEAR     51  46  82 CALM      30.21S
ATHENS         CLOUDY    50  43  76 E3        30.17S
PALESTINE      CLOUDY    50  45  83 CALM      30.19S
JACKSONVILLE   CLOUDY    51  45  82 CALM      30.19S
HENDERSON      MOCLDY    51  43  75 NE3       30.19S
NACOGDOCHES    MOCLDY    54  43  66 E5        30.17F
LUFKIN         CLOUDY    55  44  66 N3        30.16F
$$

SUPPLEMENTAL OBSERVATIONS (CENTRAL)

CITY           SKY/WX    TMP DP  RH WIND       PRES   REMARKS
LAKE TEXOMA      N/A     46  43  87 NE1         N/A
CADDO GRASSLND   N/A     46  41  81 NE1         N/A
PAT MAYSE LAKE   N/A     46  43  87 NW2         N/A
PALESTINE        N/A     48  41  76 N3          N/A
LAKE LIMESTONE   N/A     52  46  82 NE5         N/A
MCGREGOR         N/A     50  43  76 NE7         N/A
TEMPLE           N/A     50  45  81 NE10        N/A
$$

SUPPLEMENTAL OBSERVATIONS (WEST)

CITY           SKY/WX    TMP DP  RH WIND       PRES   REMARKS
MILLERS CREEK    N/A     48  43  81 S9          N/A
POSSUM KINGDOM   N/A     46  41  81 E6          N/A
LBJ GRASSLAND    N/A     46  39  76 S2          N/A
GRANBURY         N/A     48  39  71 NE1         N/A
COMANCHE         N/A     48  45  87 E7          N/A
HAMBY            N/A     52  41  66 SE6         N/A
IVIE RESERVOIR   N/A     54  41  62 E7          N/A
COLORADO BEND    N/A     50  41  71 SE1         N/A
$$

SUPPLEMENTAL OBSERVATIONS (EAST)

CITY           SKY/WX    TMP DP  RH WIND       PRES   REMARKS
CLARKSVILLE      N/A     48  45  87 NE1         N/A
TEXARKANA        N/A     50  41  71 N3          N/A
LINDEN           N/A     50  43  76 CALM        N/A
CADDO LAKE       N/A     46  43  87 CALM        N/A
GILMER           N/A     52  43  71 NE6         N/A
HENDERSON        N/A     52  43  71 NE5         N/A
LUFKIN           N/A     52  43  71 MISG        N/A
N SABINE NF      N/A     48  43  81 MISG        N/A
S SABINE NF      N/A     48  41  76 N3          N/A
$$

SUPPLEMENTAL OBSERVATIONS ARE A COLLECTION OF AUTOMATED INSTRUMENTS
THAT ARE MAINTAINED BY A VARIETY OF FEDERAL AND STATE AGENCIES.
CERTAIN ELEMENTS...SUCH AS HUMIDITY VALUES AND SUSTAINED WIND
SPEEDS...MAY BE APPROXIMATED.



USA.gov is the U.S. government's official web portal to all federal, state and local government web resources and services.